Location: Casteau
(50.5142°N, 4.0161°E)
Time: 06:19:46
(UTC+00:00)

ATLAS 2AS CENTAUR R/B - Pass Details

Date: 18 September 2020
Orbit: 939 x 1273 km, 63.7° (Epoch: 26 October)

Event Time Altitude Azimuth Distance (km) Brightness Sun altitude
Rises 19:13:59 0° 163° (SSE) 4,190 5.4 -13.8°
Enters shadow 19:16:57 - 151° (SSE) 3,420 4.9 -14.3°
Exits shadow 19:24:45 17° 88° (E) 2,735 4.3 -15.5°
Drops below altitude 10° 19:27:57 10° 65° (ENE) 3,258 4.8 -15.9°
Sets 19:31:39 0° 49° (NE) 4,204 5.6 -16.5°
